Orbital Elements at Epoch 2459200.5 (2020-Dec-17.0) TDB
Reference: JPL 34 (heliocentric ecliptic J2000)
Element | Value | Uncertainty (1-sigma) | Units |
e | .136307036149529 | 1.3124e-08 | |
a | 2.811750111560351 | 1.2803e-08 | au |
q | 2.428488787460452 | 3.5191e-08 | au |
i | 10.26217379785702 | 7.6251e-07 | deg |
node | 268.131039365255 | 3.6581e-06 | deg |
peri | 251.5098278812629 | 1.0878e-05 | deg |
M | 67.27431725724024 | 8.6121e-06 | deg |
tp | 2458878.682018431767 (2020-Jan-30.18201843) | 4.0577e-05 | TDB |
period | 1722.120388402684 4.71 | 1.1763e-05 3.221e-08 | d yr |
n | .2090446187295363 | 1.4278e-09 | deg/d |
Q | 3.195011435660251 | 1.4549e-08 | au |
|
| | Orbit Determination Parameters
Additional Information
|